Weather Roundup
Issued by NWS Corpus Christi, TX

Home | Current Version | Previous Version | Text Only | Print | Product List | Glossary On
Versions: 1 2 3 4 5 6 7 8 9 10 11 12 13 14 15 16 17 18 19 20 21 22 23 24 25 26 27 28 29 30 31 32 33 34 35 36 37 38 39 40 41 42 43 44 45 46 47 48 49 50
807
ASUS44 KCRP 272110
HRRCRP

SOUTH TEXAS REGIONAL WEATHER ROUNDUP
NATIONAL WEATHER SERVICE CORPUS CHRISTI TX
400 PM CDT MON MAR 27 2017


TXZ229>244-272200-
...CORPUS CHRISTI AREA OBSERVATIONS...

CITY           SKY/WX    TMP DP  RH WIND       PRES   REMARKS
CORPUS CHRISTI PTSUNNY   83  70  64 SE17      29.81F
NAS CORPUS CHR PTSUNNY   82  72  71 SE17      29.82F
ROCKPORT       MOSUNNY   81  70  69 SE15      29.83F
KINGSVILLE NAS PTSUNNY   85  73  67 E14       29.79F HX  91
ALICE          CLOUDY    87  66  49 S8        29.79F
ORANGE GROVE   PTSUNNY   87  69  54 S8        29.80F HX  91
FALFURRIAS     CLOUDY    87  67  51 CALM      29.78F HX  90
$$

...VICTORIA AREA OBSERVATIONS...

CITY           SKY/WX    TMP DP  RH WIND       PRES   REMARKS
VICTORIA       PTSUNNY   84  69  60 SE15      29.83F
BEEVILLE       PTSUNNY   85  69  57 S8        29.81F
PLEASANTON     CLOUDY    80  67  64 CALM      29.83F
SAN ANTONIO    MOSUNNY   80  66  62 E7        29.84F
$$

...LAREDO AREA OBSERVATIONS...

CITY           SKY/WX    TMP DP  RH WIND       PRES   REMARKS
LAREDO         SUNNY     82  68  62 VRB3      29.81F
COTULLA        CLOUDY    81  67  62 SE8       29.82F
DEL RIO        SUNNY     87  56  34 E7        29.79F
MCALLEN        PTSUNNY   89  70  53 SE10      29.77F HX  94
HEBBRONVILLE   PTSUNNY   84  65  52 SE6       29.80F
$$

...OTHER TEXAS OBSERVATIONS...

CITY           SKY/WX    TMP DP  RH WIND       PRES   REMARKS
BROWNSVILLE    CLOUDY    83  69  62 SE14      29.80F
HOUSTON        MOSUNNY   84  65  52 S9        29.84F
COL. STATION   PTSUNNY   80  66  62 S6        29.85F
AUSTIN         MOSUNNY   82  67  60 E10       29.83F
WACO           SUNNY     77  61  57 VRB3      29.86F
FORT WORTH     MOSUNNY   71  55  56 VRB5      29.87F
WICHITA FALLS  SUNNY     72  48  42 VRB6      29.88F
LUBBOCK        SUNNY     71  35  26 S13       29.89F
EL PASO        SUNNY     78  15   9 SW12G26   29.87F
$$

...MARINE OBSERVATIONS...

STATION/POSITION TIME  SKY/WX   TEMP    WIND        PRES    VSBY  WAVE   SWELL
                                AIR SEA DIR/SP/G                  HT/PER HT/PER
                 (UTC)          (F)     (DEG/KT/KT) (MB)    (MI)  (FT/S) (FT/S)
PORT ARANSAS     2100            73 75  100/ 11/ 12 1010.4F
BUOY 90 E PORT A 2050            75 73  140/  8/ 10 1011.3F         5/ 7   5/ 7
BUOY 45 SE BAFFI 2050            74     130/  6/  6 1009.5F         5/ 7   5/ 7
BUOY 200 E PT IS 2050            77 77  150/ 17/ 19 1011.4F         6/ 6   2/ 9
BUOY 15 E GALVES 2050            73 74  160/  6/  8 1012.3F         4/ 7   3/ 7
$$




USA.gov is the U.S. government's official web portal to all federal, state and local government web resources and services.